Home   Weather   Asker   Past weeks

Flag for Norway Past Weather in Asker, Norway — Yesterday and Last 2 Weeks

Now
48 °F

Sprinkles. Fog.


Feels Like: 42 °F
Forecast: 19 / 29 °F
Wind: 18 mph from Southwest

Location: Statfjord B

Current Time: Jan 17, 2017 at 4:08:37 pm

Latest Report: Jan 17, 2017 at 3:20 pm


Visibility: 0 mi

Pressure: 30.24 "Hg

Humidity: 100%

Dew Point: 48 °F

Location of AskerLocation

Past Weather in Asker — Graph

°F

Asker Temperature Yesterday

Maximum temperature yesterday: 48 °F (at 8:20 pm)
Minimum temperature yesterday: 41 °F (at 12:20 am)
Average temperature yesterday: 44 °F

High & Low Weather Summary for the Past Weeks

 TemperatureHumidityPressure
High48 °F (Jan 6, 1:50 pm)100% (Jan 3, 2:50 am)30.42 "Hg (Jan 3, 2:50 am)
Low30 °F (Jan 13, 8:20 pm)42% (Jan 5, 7:20 am)28.59 "Hg (Jan 12, 5:50 pm)
Average42 °F76%29.72 "Hg
* Reported Jan 2 2:20 pm — Jan 17 2:50 pm, Asker, Weather by CustomWeather, © 2017

Note: Actual official high and low records may vary slightly from our data, if they occured in-between our weather recording intervals... More about our weather records

Advertising

Asker Weather History for the Previous 24 Hours

Scroll right to see more
 ConditionsComfort  
Time TempWeatherWind HumidityBarometerVisibility
2:50 pm
Tue, Jan 17
48 °FSprinkles. Fog.20 mph100%30.24 "Hg1 mi
2:20 pm48 °FLight rain. Fog.21 mph100%30.24 "Hg0 mi
1:50 pm48 °FLight rain. Fog.20 mph100%30.24 "Hg0 mi
1:20 pm48 °FLight rain. Fog.22 mph100%30.24 "Hg1 mi
12:50 pm48 °FLight rain. Fog.23 mph100%30.24 "Hg1 mi
12:20 pm48 °FSprinkles. Fog.22 mph100%30.24 "Hg1 mi
11:50 am48 °FSprinkles. Fog.22 mph100%30.24 "Hg0 mi
11:20 am48 °FSprinkles. Fog.21 mph100%30.24 "Hg1 mi
10:50 am48 °FLight rain. Fog.18 mph100%30.24 "Hg1 mi
10:20 am48 °FDrizzle. Fog.13 mph100%30.24 "Hg1 mi
9:50 am48 °FLight rain. Fog.10 mph100%30.24 "Hg1 mi
9:20 am48 °FLight rain. Fog.13 mph100%30.21 "Hg1 mi
8:50 am46 °FLight rain. Passing clouds.12 mph100%30.21 "Hg3 mi
8:20 am46 °FLight rain. Fog.15 mph100%30.21 "Hg2 mi
7:50 am48 °FLight rain. Low clouds.18 mph100%30.21 "HgN/A
7:20 am48 °FPassing clouds.17 mph100%30.21 "HgN/A
6:50 am48 °FPartly cloudy.18 mph100%30.21 "HgN/A
6:20 am48 °FPartly cloudy.21 mph100%30.21 "HgN/A
5:50 am48 °FDrizzle. Fog.22 mph100%30.21 "Hg1 mi
5:20 am48 °FSprinkles. Fog.21 mph100%30.18 "Hg1 mi
4:50 am48 °FSprinkles. Fog.21 mph100%30.18 "Hg0 mi
4:20 am48 °FSprinkles. Fog.21 mph100%30.18 "Hg1 mi
3:50 am48 °FLight rain. Fog.18 mph100%30.21 "Hg1 mi
3:20 am48 °FLight rain. Fog.21 mph100%30.18 "Hg1 mi
2:50 am48 °FLight rain. Fog.23 mph100%30.18 "Hg1 mi
2:20 am48 °FLight rain. Fog.23 mph100%30.18 "Hg0 mi
1:50 am48 °FLight rain. Fog.24 mph100%30.18 "Hg1 mi
1:20 am48 °FLight rain. Fog.23 mph100%30.18 "Hg1 mi
12:50 am48 °FLight rain. Fog.23 mph100%30.18 "Hg0 mi
12:20 am48 °FLight rain. Fog.24 mph100%30.18 "Hg1 mi
11:50 pm
Mon, Jan 16
48 °FLight rain. Fog.24 mph100%30.18 "Hg1 mi
11:20 pm48 °FLight rain. Fog.24 mph100%30.18 "Hg1 mi
10:50 pm48 °FLight rain. Fog.24 mph100%30.18 "Hg1 mi
10:20 pm48 °FLight rain. Fog.26 mph100%30.15 "Hg1 mi
9:50 pm48 °FLight rain. Fog.28 mph100%30.15 "Hg1 mi
9:20 pm48 °FLight rain. Fog.29 mph100%30.15 "Hg1 mi
8:50 pm48 °FLight rain. Fog.30 mph100%30.15 "Hg1 mi
8:20 pm48 °FLight rain. Fog.30 mph100%30.15 "Hg2 mi
7:50 pm46 °FLight rain. Fog.30 mph100%30.15 "Hg1 mi
7:20 pm46 °FLight rain. Fog.30 mph100%30.15 "Hg2 mi
6:50 pm46 °FLight rain. Fog.33 mph100%30.15 "Hg2 mi
6:20 pm46 °FLight rain. Fog.36 mph100%30.15 "Hg1 mi
5:50 pm46 °FSprinkles. Fog.37 mph100%30.15 "Hg3 mi
5:20 pm46 °FSprinkles. Low clouds.40 mph93%30.15 "Hg4 mi
4:50 pm45 °FLight rain. Fog.40 mph100%30.15 "Hg3 mi
4:20 pm45 °FLight rain. Low clouds.43 mph100%30.15 "Hg4 mi
Weather by CustomWeather, © 2017

See weather overviewHow to use our weather pages